DLH4F KLAX-KPHX

Flight info

Callsign DLH4F
Flight time N/A
Altitude 24000
Route DOTSS2 CNERY BLH HYDRR1
Aircraft A333/M-SDE2E3FGHIJ1RWXYZ/LB1

Departure

Time 2026-04-26 04:24
Airport Los Angeles International Airport (KLAX)

Arrival

Time N/A
Airport Phoenix Sky Harbor International Airport (KPHX)
Time Latitude Longitude Altitude Speed Heading
2026-04-26 04:11 33.94022 -118.41072 127 ft 0 kts 83°
2026-04-26 04:14 33.94022 -118.41074 127 ft 2 kts 83°
2026-04-26 04:14 33.94015 -118.41152 126 ft 14 kts 101°
2026-04-26 04:15 33.94047 -118.41187 125 ft 0 kts 195°
2026-04-26 04:17 33.94001 -118.41184 125 ft 20 kts 176°
2026-04-26 04:17 33.93858 -118.41165 128 ft 21 kts 173°
2026-04-26 04:17 33.93766 -118.41112 128 ft 12 kts 91°
2026-04-26 04:17 33.93780 -118.40964 129 ft 31 kts 83°
2026-04-26 04:18 33.93809 -118.40681 129 ft 36 kts 84°
2026-04-26 04:18 33.93840 -118.40376 123 ft 37 kts 83°
2026-04-26 04:18 33.93871 -118.40076 121 ft 36 kts 83°
2026-04-26 04:18 33.93901 -118.39775 115 ft 36 kts 82°
2026-04-26 04:19 33.93931 -118.39487 113 ft 35 kts 83°
2026-04-26 04:19 33.93960 -118.39208 110 ft 34 kts 84°
2026-04-26 04:19 33.93989 -118.38922 107 ft 34 kts 84°
2026-04-26 04:19 33.94017 -118.38648 107 ft 38 kts 84°
2026-04-26 04:20 33.94047 -118.38345 104 ft 40 kts 83°
2026-04-26 04:20 33.94074 -118.38089 104 ft 17 kts 83°
2026-04-26 04:20 33.94051 -118.38017 104 ft 9 kts 161°
2026-04-26 04:20 33.93995 -118.38007 104 ft 3 kts 191°
2026-04-26 04:21 33.93985 -118.38030 104 ft 0 kts 262°
2026-04-26 04:22 33.93975 -118.38120 104 ft 35 kts 262°
2026-04-26 04:23 33.93910 -118.38625 107 ft 101 kts 267°
2026-04-26 04:23 33.93825 -118.39606 113 ft 159 kts 260°
2026-04-26 04:23 33.93687 -118.41009 129 ft 207 kts 257°
2026-04-26 04:23 33.93556 -118.42471 324 ft 232 kts 260°
2026-04-26 04:24 33.93487 -118.43222 640 ft 233 kts 263°
2026-04-26 04:24 33.93256 -118.45081 1806 ft 226 kts 259°
2026-04-26 04:24 33.92622 -118.46709 2986 ft 220 kts 231°
2026-04-26 04:24 33.91652 -118.48150 3933 ft 230 kts 232°
2026-04-26 04:25 33.90570 -118.49777 4459 ft 262 kts 230°
2026-04-26 04:25 33.89330 -118.51536 5375 ft 278 kts 231°
2026-04-26 04:25 33.88047 -118.53369 6098 ft 301 kts 231°
2026-04-26 04:25 33.86426 -118.55103 6924 ft 321 kts 211°
2026-04-26 04:26 33.84301 -118.55895 8345 ft 324 kts 191°
2026-04-26 04:26 33.82045 -118.55701 9402 ft 339 kts 168°
2026-04-26 04:26 33.79790 -118.54860 10404 ft 344 kts 170°
2026-04-26 04:26 33.77443 -118.54179 11436 ft 348 kts 172°
2026-04-26 04:27 33.75079 -118.53531 12400 ft 353 kts 173°
2026-04-26 04:27 33.72702 -118.52853 13305 ft 359 kts 168°
2026-04-26 04:27 33.70442 -118.51445 14131 ft 378 kts 147°
2026-04-26 04:27 33.68615 -118.49137 14970 ft 392 kts 129°
2026-04-26 04:28 33.67447 -118.46146 15714 ft 407 kts 109°
2026-04-26 04:28 33.66892 -118.42767 16384 ft 414 kts 108°
2026-04-26 04:28 33.65977 -118.39477 17010 ft 421 kts 113°
2026-04-26 04:28 33.64981 -118.36068 16907 ft 449 kts 111°
2026-04-26 04:29 33.64372 -118.32327 16906 ft 455 kts 95°
2026-04-26 04:29 33.64446 -118.28576 17648 ft 428 kts 92°
2026-04-26 04:29 33.64465 -118.25401 20077 ft 381 kts 92°
2026-04-26 04:29 33.64468 -118.22247 20790 ft 386 kts 93°
2026-04-26 04:30 33.64467 -118.11812 22230 ft 398 kts 94°
2026-04-26 04:30 33.64437 -117.92532 23979 ft 409 kts 95°
2026-04-26 04:30 33.64403 -117.80274 24926 ft 418 kts 99°
2026-04-26 04:30 33.63876 -117.76899 24961 ft 421 kts 115°
2026-04-26 04:31 33.63180 -117.74360 25005 ft 433 kts 115°
2026-04-26 04:31 33.62271 -117.70792 24966 ft 453 kts 114°
2026-04-26 04:31 33.61327 -117.67010 24971 ft 470 kts 113°
2026-04-26 04:31 33.60370 -117.63135 24988 ft 487 kts 113°
2026-04-26 04:32 33.58324 -117.54869 24950 ft 503 kts 112°
2026-04-26 04:32 33.52625 -117.31936 25070 ft 517 kts 113°
2026-04-26 04:32 33.50119 -117.21510 24999 ft 529 kts 107°
2026-04-26 04:32 33.49837 -117.17552 24862 ft 526 kts 92°
2026-04-26 04:33 33.50137 -117.13655 24950 ft 509 kts 90°
2026-04-26 04:33 33.50234 -117.09749 24982 ft 509 kts 94°
2026-04-26 04:33 33.50126 -116.95745 24836 ft 510 kts 96°
2026-04-26 04:33 33.49737 -116.71274 24951 ft 513 kts 96°
2026-04-26 04:34 33.49305 -116.46455 24969 ft 514 kts 97°
2026-04-26 04:34 33.48911 -116.21019 24830 ft 510 kts 97°
2026-04-26 04:34 33.48706 -116.09660 24830 ft 509 kts 97°
2026-04-26 04:34 33.48668 -116.05374 24853 ft 512 kts 93°
2026-04-26 04:35 33.49248 -116.01080 24819 ft 522 kts 77°
2026-04-26 04:35 33.50481 -115.96935 24842 ft 523 kts 72°
2026-04-26 04:35 33.51717 -115.92796 24827 ft 525 kts 73°
2026-04-26 04:35 33.52945 -115.88603 24819 ft 526 kts 73°
2026-04-26 04:36 33.54185 -115.84362 24834 ft 527 kts 73°
2026-04-26 04:36 33.55430 -115.80114 24832 ft 525 kts 73°
2026-04-26 04:36 33.56788 -115.75977 24814 ft 525 kts 64°
2026-04-26 04:36 33.58952 -115.72224 24842 ft 527 kts 46°
2026-04-26 04:37 33.62971 -115.68017 24854 ft 521 kts 30°
2026-04-26 04:37 33.67630 -115.65169 24806 ft 497 kts 13°
2026-04-26 04:37 33.72552 -115.63912 24838 ft 473 kts 355°
2026-04-26 04:37 33.77259 -115.64268 24869 ft 455 kts 338°
2026-04-26 04:38 33.81556 -115.66125 24852 ft 436 kts 321°
2026-04-26 04:38 33.85081 -115.69308 24856 ft 416 kts 304°
2026-04-26 04:38 33.87457 -115.73316 24781 ft 385 kts 287°
2026-04-26 04:38 33.88828 -115.77518 24335 ft 369 kts 281°
2026-04-26 04:39 33.90070 -115.81735 21946 ft 377 kts 281°
2026-04-26 04:39 33.91190 -115.85899 20188 ft 372 kts 281°
2026-04-26 04:39 33.92261 -115.90115 18654 ft 366 kts 282°
2026-04-26 04:39 33.93239 -115.94242 16957 ft 362 kts 281°
2026-04-26 04:40 33.93402 -115.94956 16667 ft 362 kts 281°
2026-04-26 04:40 33.96304 -116.07680 12862 ft 345 kts 281°
2026-04-26 04:40 33.97089 -116.11328 11753 ft 336 kts 281°
2026-04-26 04:40 33.97882 -116.15057 10193 ft 335 kts 281°
2026-04-26 04:41 33.98618 -116.18630 9766 ft 327 kts 281°
2026-04-26 04:41 33.99346 -116.22154 10058 ft 327 kts 281°
2026-04-26 04:41 34.00118 -116.25909 9800 ft 335 kts 281°
2026-04-26 04:41 34.00893 -116.29697 9877 ft 335 kts 281°
2026-04-26 04:42 34.01679 -116.33598 9883 ft 333 kts 281°
2026-04-26 04:42 34.02446 -116.37376 9856 ft 329 kts 281°
2026-04-26 04:42 34.03174 -116.40939 9954 ft 334 kts 281°
2026-04-26 04:42 34.04760 -116.48831 9941 ft 336 kts 281°
2026-04-26 04:43 34.05535 -116.52630 9855 ft 329 kts 281°
2026-04-26 04:43 34.06140 -116.56398 9859 ft 327 kts 271°
2026-04-26 04:43 34.05719 -116.60287 9902 ft 323 kts 251°
2026-04-26 04:43 34.04048 -116.63847 9907 ft 323 kts 233°
2026-04-26 04:44 34.02050 -116.66777 9912 ft 326 kts 231°
2026-04-26 04:44 34.00002 -116.69765 9904 ft 324 kts 232°
2026-04-26 04:44 33.97960 -116.72711 9914 ft 322 kts 231°
2026-04-26 04:44 33.95799 -116.75825 9892 ft 321 kts 231°
2026-04-26 04:45 33.93608 -116.78965 9910 ft 322 kts 231°
2026-04-26 04:45 33.91412 -116.82126 9888 ft 321 kts 231°
2026-04-26 04:45 33.89337 -116.85109 9927 ft 319 kts 231°
2026-04-26 04:45 33.87369 -116.87949 9917 ft 322 kts 231°
2026-04-26 04:46 33.85449 -116.90723 9927 ft 322 kts 231°
2026-04-26 04:46 33.83528 -116.93505 9969 ft 321 kts 231°
2026-04-26 04:46 33.81587 -116.96374 9966 ft 319 kts 237°
2026-04-26 04:46 33.80318 -116.99841 9949 ft 319 kts 257°
2026-04-26 04:47 33.80209 -117.03639 9971 ft 324 kts 275°
2026-04-26 04:47 33.80714 -117.07735 9973 ft 326 kts 276°
2026-04-26 04:47 33.81229 -117.11780 9956 ft 326 kts 276°
2026-04-26 04:47 33.81697 -117.15519 9964 ft 326 kts 276°
2026-04-26 04:48 33.82643 -117.23033 9962 ft 323 kts 277°
2026-04-26 04:48 33.83106 -117.26742 9958 ft 325 kts 277°
2026-04-26 04:48 33.83609 -117.30804 9957 ft 323 kts 277°
2026-04-26 04:49 33.84115 -117.34931 9959 ft 324 kts 277°
2026-04-26 04:49 33.84816 -117.38849 9937 ft 327 kts 289°
2026-04-26 04:49 33.86090 -117.42194 9981 ft 328 kts 291°
2026-04-26 04:49 33.87310 -117.45590 9969 ft 328 kts 290°
2026-04-26 04:50 33.88524 -117.49023 9954 ft 328 kts 290°
2026-04-26 04:50 33.89742 -117.52509 9962 ft 329 kts 290°
2026-04-26 04:50 33.90734 -117.55351 9959 ft 329 kts 290°
2026-04-26 04:50 33.91550 -117.57687 9960 ft 328 kts 290°
2026-04-26 04:51 33.92379 -117.60068 9955 ft 328 kts 290°
2026-04-26 04:51 33.93288 -117.62687 9957 ft 328 kts 290°
2026-04-26 04:51 33.94298 -117.65591 9955 ft 328 kts 289°
2026-04-26 04:51 33.95158 -117.69074 9934 ft 325 kts 275°
2026-04-26 04:52 33.94961 -117.72716 9960 ft 322 kts 256°
2026-04-26 04:52 33.94330 -117.76324 9979 ft 323 kts 260°
2026-04-26 04:52 33.93892 -117.79945 9952 ft 323 kts 261°
2026-04-26 04:52 33.93503 -117.83564 9952 ft 324 kts 262°
2026-04-26 04:53 33.93132 -117.87244 9953 ft 323 kts 262°
2026-04-26 04:53 33.92776 -117.90897 9948 ft 324 kts 262°
2026-04-26 04:53 33.92444 -117.94470 9887 ft 309 kts 264°
2026-04-26 04:53 33.92588 -117.97073 9710 ft 287 kts 285°
2026-04-26 04:54 33.93439 -117.99072 9214 ft 284 kts 304°
2026-04-26 04:54 33.94568 -118.00911 8474 ft 283 kts 300°
2026-04-26 04:54 33.95593 -118.02816 7781 ft 281 kts 300°
2026-04-26 04:54 33.96581 -118.04690 6924 ft 285 kts 297°
2026-04-26 04:55 33.97213 -118.06707 6172 ft 281 kts 276°
2026-04-26 04:55 33.97142 -118.08355 5614 ft 278 kts 252°
2026-04-26 04:55 33.96640 -118.10596 4889 ft 275 kts 259°
2026-04-26 04:55 33.96343 -118.12872 4141 ft 274 kts 261°
2026-04-26 04:56 33.96095 -118.15092 3567 ft 267 kts 262°
2026-04-26 04:56 33.95832 -118.17178 3405 ft 248 kts 259°
2026-04-26 04:56 33.95604 -118.19051 3420 ft 225 kts 264°
2026-04-26 04:56 33.95481 -118.20744 3407 ft 210 kts 264°
2026-04-26 04:57 33.95355 -118.22327 3229 ft 207 kts 265°
2026-04-26 04:57 33.95231 -118.23943 2647 ft 218 kts 263°
2026-04-26 04:57 33.95067 -118.25640 2198 ft 219 kts 260°
2026-04-26 04:57 33.94866 -118.27231 2093 ft 207 kts 262°
2026-04-26 04:58 33.94712 -118.28817 1763 ft 221 kts 263°
2026-04-26 04:58 33.94540 -118.30504 1456 ft 230 kts 262°
2026-04-26 04:58 33.94365 -118.32169 1144 ft 216 kts 262°
2026-04-26 04:58 33.94206 -118.33692 882 ft 202 kts 263°
2026-04-26 04:59 33.94059 -118.35097 647 ft 188 kts 262°
2026-04-26 04:59 33.93930 -118.36406 453 ft 169 kts 264°
2026-04-26 04:59 33.93818 -118.37541 312 ft 146 kts 262°
2026-04-26 04:59 33.93711 -118.38552 126 ft 136 kts 263°
2026-04-26 05:00 33.93613 -118.39483 115 ft 107 kts 263°
2026-04-26 05:00 33.93543 -118.40166 125 ft 62 kts 264°
2026-04-26 05:00 33.93581 -118.40601 129 ft 36 kts 291°
2026-04-26 05:00 33.93589 -118.40829 131 ft 24 kts 264°
2026-04-26 05:01 33.93569 -118.41010 131 ft 22 kts 263°
2026-04-26 05:01 33.93559 -118.41180 131 ft 20 kts 285°
2026-04-26 05:01 33.93648 -118.41267 131 ft 18 kts 350°
2026-04-26 05:01 33.93751 -118.41254 131 ft 15 kts 53°
2026-04-26 05:02 33.93790 -118.41161 131 ft 12 kts 17°
2026-04-26 05:02 33.93837 -118.41163 131 ft 6 kts 355°
2026-04-26 05:02 33.93867 -118.41166 130 ft 1 kts 355°
2026-04-26 05:02 33.93906 -118.41170 130 ft 14 kts 354°
2026-04-26 05:03 33.94010 -118.41184 128 ft 13 kts 354°
2026-04-26 05:03 33.94088 -118.41177 128 ft 11 kts 44°
2026-04-26 05:03 33.94098 -118.41101 129 ft 6 kts 83°
2026-04-26 05:03 33.94100 -118.41086 129 ft 0 kts 83°